Location: La Pernelle
(49.6188°N, 1.2999°W)
Time: 17:12:59
(UTC+00:00)

SL-16 R/B - Pass Details

Date: 24 October 2021
Orbit: 842 x 846 km, 71.0° (Epoch: 28 November)

Event Time Altitude Azimuth Distance (km) Brightness Sun altitude
Rises 17:51:50 0° 188° (S) 3,387 5.6 -9.5°
Reaches altitude 10° 17:54:20 10° 183° (S) 2,457 4.8 -9.9°
Maximum altitude 17:59:44 49° 110° (ESE) 1,085 2.4 -10.8°
Drops below altitude 10° 18:05:10 10° 38° (NE) 2,476 4.2 -11.7°
Sets 18:07:41 0° 33° (NNE) 3,416 5.0 -12.1°
Enters shadow 18:07:55 -1° 32° (NNE) 3,505 5.1 -12.1°
